Regional Weather Roundup
Issued by NWS

Home | Current Version | Previous Version | Graphics & Text | Print | Product List | Glossary On
Versions: 1 2 3 4 5 6 7 8 9 10 11 12 13 14 15 16 17 18 19 20 21 22 23 24 25 26 27 28 29 30 31 32 33 34 35 36 37 38 39 40 41 42 43 44 45 46 47 48 49 50
000
ASUS43 KFSD 150910
RWRSD

WEATHER ROUNDUP FOR SOUTH DAKOTA
NATIONAL WEATHER SERVICE SIOUX FALLS SD
300 AM CST FRI DEC 15 2017

NOTE: "FAIR" INDICATES FEW OR NO CLOUDS BELOW 12,000 FEET WITH NO
SIGNIFICANT WEATHER AND/OR OBSTRUCTIONS TO VISIBILITY.


SDZ001>005-009-010-012>017-151000-
NORTHWEST AND NORTH CENTRAL SOUTH DAKOTA

CITY           SKY/WX    TMP DP  RH WIND       PRES   REMARKS
BUFFALO          N/A     25  19  78 W10       29.86F WCI  15
FAITH            N/A     28  22  78 W3        29.95F
MOBRIDGE       CLOUDY    30  23  75 W6        29.93F WCI  24
$$

SDZ012>016-024>037-041>051-057-063-072>074-151000-
SOUTHWEST AND SOUTH CENTRAL SOUTH DAKOTA

CITY           SKY/WX    TMP DP  RH WIND       PRES   REMARKS
RAPID CTY ARPT CLOUDY    16  10  77 CALM      29.98F
PIERRE         CLOUDY    29  23  78 W9        29.99F WCI  20
CUSTER         CLOUDY    24  14  65 W6        29.96F WCI  17
ELLSWORTH AFB  CLOUDY    24  13  64 W6        29.96F WCI  17
PHILIP         CLOUDY    24  20  84 W8        30.01F WCI  15
PINE RIDGE     CLOUDY    19  16  88 CALM      30.05F
SPEARFISH      FAIR      32  16  51 W13       29.96F WCI  22
WINNER         FAIR      28  23  81 SW8       30.03F WCI  20
$$

SDZ004>011-016>023-039-040-151000-
NORTHEAST SOUTH DAKOTA

CITY           SKY/WX    TMP DP  RH WIND       PRES   REMARKS
ABERDEEN       CLOUDY    33  26  75 W9        29.94F WCI  25
WATERTOWN      CLOUDY    29  27  92 W8        29.91F WCI  21
BROOKINGS      CLOUDY    30  26  85 W13       29.94F WCI  20
SISSETON         N/A     32  27  81 NW14      29.91F WCI  22
$$

SDZ017-020-022-023-036>040-048>070-151000-
SOUTHEAST SOUTH DAKOTA

CITY           SKY/WX    TMP DP  RH WIND       PRES   REMARKS
SIOUX FALLS    CLOUDY    31  27  85 W7        29.99F WCI  24
HURON          CLOUDY    34  26  72 W12       29.98F WCI  25
CHAMBERLAIN    CLEAR     31  28  90 W9        30.01F WCI  23
MITCHELL       CLOUDY    34  27  75 W13       30.01F WCI  25
YANKTON        CLOUDY    34  24  67 W12       30.03F WCI  25
$$

ABBREVIATIONS USED IN REMARKS
   TC - TEMPERATURE IN CELSIUS
  WCI - WIND CHILL INDEX
   HX - HEAT INDEX
  VSB - VISIBILITY





USA.gov is the U.S. government's official web portal to all federal, state and local government web resources and services.